[[[{"header":{"parameterUnit":"kt","parameterCategory":2,"dx":1,"dy":1,"la1":30.253999710083008,"la2":30.299108505249023,"lo1":-89.0895004272461,"lo2":-89.04439544677734,"nx":28,"ny":28,"refTime":"2022-09-18T21:00:00:Z","depth":0,"parameterNumber":1,"parameterNumberName":"U-component_of_WINDS"},"data":[-1.8473,-1.8503,-1.8475,-1.8497,-1.8476,-1.8485,-1.848,-1.8471,-1.8457,-1.8467,-1.8469,-1.8445,-1.8421,-1.8416,-1.8417,-1.8406,-1.8408,-1.844,-1.8422,-1.8306,-1.8288,-1.8271,-1.8261,-1.8441,-1.8441,-1.8545,-1.8546,-1.8546,-1.8394,-1.8373,-1.8376,-1.836,-1.8363,-1.8316,-1.83,-1.8305,-1.8316,-1.8299,-1.8298,-1.8305,-1.8307,-1.8271,-1.8269,-1.8284,-1.8262,-1.8285,-1.8283,-1.828,-1.8156,-1.8145,-1.8303,-1.8303,-1.8303,-1.8303,-1.8303,-1.8303,-1.8242,-1.8261,-1.8233,-1.8236,-1.822,-1.821,-1.8223,-1.8192,-1.8195,-1.8187,-1.8154,-1.8166,-1.8144,-1.8127,-1.8114,-1.8124,-1.8092,-1.8109,-1.8113,-1.8118,-1.8127,-1.7981,-1.8122,-1.8121,-1.8121,-1.812,-1.812,0,-1.8121,-1.8096,-1.8096,-1.8088,-1.8088,-1.808,-1.8067,-1.8074,-1.8011,-1.8017,-1.8022,-1.802,-1.8018,-1.8021,-1.8012,-1.7994,-1.7946,-1.7938,-1.795,-1.7965,-1.7981,-1.7973,-1.7771,-1.7934,-1.7932,-1.7931,-1.793,-1.7929,-1.7964,-1.7989,-1.7946,-1.7951,-1.7935,-1.7943,-1.7942,-1.7884,-1.7885,-1.7862,-1.7882,-1.7883,-1.788,-1.7895,-1.7858,-1.7856,-1.7833,-1.7898,-1.7832,-1.7847,-1.7833,-1.7831,-1.7834,-1.7911,-1.7914,-1.7916,-1.7917,0,-1.7879,-1.7831,-1.786,-1.7814,-1.7803,-1.7833,-1.7794,-1.7811,-1.7778,-1.7796,-1.7797,-1.7746,-1.7752,-1.7704,-1.7702,-1.7677,-1.7727,-1.7705,-1.7735,-1.7727,-1.7781,-1.7776,-1.7961,-1.7983,-1.7797,-1.7799,-1.78,0,-1.7726,-1.7761,-1.7686,-1.7705,-1.7743,-1.7682,-1.7721,-1.7695,-1.7673,-1.7687,-1.7623,-1.7638,-1.7573,-1.7581,-1.7544,-1.7577,-1.7576,-1.7559,-1.7548,-1.7564,-1.7566,-1.7563,-1.7554,-1.7524,-1.7523,-1.7522,-1.7521,0,-1.7595,-1.7596,-1.7627,-1.7619,-1.7573,-1.759,-1.7572,-1.7545,-1.7545,-1.7536,-1.7535,-1.753,-1.7527,-1.7525,-1.7477,-1.7434,-1.7516,-1.7447,-1.7497,-1.7499,-1.7517,-1.7517,-1.7694,-1.752,-1.752,-1.7519,-1.7519,0,-1.7463,-1.7453,-1.7506,-1.7465,-1.7468,-1.7489,-1.7478,-1.7484,-1.7461,-1.7438,-1.7431,-1.7382,-1.7406,-1.7341,-1.7373,-1.7331,-1.7333,-1.7318,-1.732,-1.7319,-1.7247,-1.7353,-1.7527,-1.7543,-1.7319,-1.7317,-1.7316,0,-1.7327,-1.7366,-1.7312,-1.7364,-1.7375,-1.73,-1.7323,-1.7303,-1.7274,-1.7279,-1.7247,-1.7255,-1.7196,-1.7191,-1.7214,-1.7181,-1.7236,-1.7172,-1.7183,-1.7185,-1.7191,-1.7351,-1.7388,-1.7495,-1.7294,-1.7296,-1.7298,0,-1.7215,-1.7156,-1.7169,-1.7157,-1.7119,-1.7128,-1.7154,-1.7147,-1.7154,-1.7139,-1.7159,-1.7169,-1.7124,-1.7117,-1.7076,-1.7103,-1.7197,-1.7052,-1.705,-1.708,-1.7279,-1.7314,-1.7332,-1.7164,-1.7167,-1.7169,-1.728,0,-1.7025,-1.7037,-1.707,-1.7044,-1.7043,-1.7072,-1.7016,-1.7022,-1.6982,-1.6949,-1.6979,-1.6949,-1.6943,-1.695,-1.6911,-1.6986,-1.6966,-1.6919,-1.6851,-1.6956,-1.6992,-1.7006,-1.6803,-1.68,-1.6798,-1.6797,0,0,-1.6907,-1.6923,-1.6861,-1.6882,-1.6877,-1.6798,-1.6833,-1.682,-1.6793,-1.6792,-1.6754,-1.6763,-1.6741,-1.6783,-1.6811,-1.6809,-1.6817,-1.6782,-1.6907,-1.6919,-1.6931,-1.6969,-1.6985,-1.6793,-1.6793,-1.6792,-1.6791,0,-1.6825,-1.6802,-1.6837,-1.6819,-1.679,-1.6752,-1.6761,-1.6718,-1.6699,-1.6726,-1.6661,-1.6672,-1.668,-1.6665,-1.6659,-1.6776,-1.6726,-1.6778,-1.6859,-1.6889,-1.6904,-1.6917,-1.6959,-1.6975,-1.6787,-1.6787,-1.6787,0,-1.6704,-1.6671,-1.6682,-1.6665,-1.6645,-1.6658,-1.6573,-1.659,-1.6599,-1.6512,-1.654,-1.6517,-1.6492,-1.6538,-1.6557,-1.6523,-1.6647,-1.6598,-1.6608,-1.6609,-1.6635,-1.6653,-1.667,-1.6456,-1.6455,-1.6454,0,0,-1.6641,-1.6651,-1.6597,-1.6643,-1.6635,-1.6579,-1.658,-1.6539,-1.6517,-1.6509,-1.6477,-1.6459,-1.6463,-1.6467,-1.6468,-1.6527,-1.6517,-1.6559,-1.6575,-1.6588,-1.6596,-1.6625,-1.6643,-1.6451,-1.6451,-1.6451,0,0,-1.6611,-1.6549,-1.6511,-1.6557,-1.6538,-1.6488,-1.6519,-1.6471,-1.6466,-1.6456,-1.6389,-1.6381,-1.6423,-1.6403,-1.6362,-1.6443,-1.6378,-1.6386,-1.6455,-1.6474,-1.6489,-1.6493,-1.6271,0,0,0,0,0,-1.6497,-1.6556,-1.6522,-1.6521,-1.6499,-1.6507,-1.6503,-1.6448,-1.6402,-1.6428,-1.6394,-1.634,-1.6367,-1.6329,-1.633,-1.6376,-1.6406,-1.6414,-1.6421,-1.6523,-1.6544,-1.6561,0,0,0,0,0,0,-1.6496,-1.6495,-1.6521,-1.6474,-1.6468,-1.6504,-1.6414,-1.6401,-1.6398,-1.6387,-1.6348,-1.6339,-1.6293,-1.6325,-1.6327,-1.6372,-1.627,-1.6409,-1.6416,-1.6422,-1.653,-1.6547,-1.6561,0,0,0,0,0,-1.6495,-1.6494,-1.6472,-1.6473,-1.6468,-1.6409,-1.6412,-1.64,-1.6397,-1.6343,-1.6332,-1.6355,-1.6296,-1.6293,-1.6326,-1.6372,-1.6269,-1.627,-1.6413,-1.6419,-1.6423,-1.6538,0,0,0,0,0,0,-1.6494,-1.6484,-1.647,-1.6467,-1.6445,-1.6405,-1.6397,-1.6399,-1.6351,-1.6341,-1.6346,-1.6338,-1.6298,-1.6296,-1.6295,-1.6375,-1.6268,-1.6268,-1.6269,-1.6417,-1.6421,-1.6425,0,0,0,0,0,0,-1.6484,-1.6481,-1.6468,-1.6437,-1.6429,-1.6403,-1.6396,-1.6415,-1.6352,-1.6357,-1.6349,-1.6343,-1.6301,-1.6298,-1.6297,-1.633,-1.6267,-1.6267,-1.6268,-1.6268,-1.6421,-1.6424,0,0,0,0,0,0,-1.6482,-1.648,-1.6437,-1.6432,-1.6425,-1.6382,-1.6419,-1.64,-1.6324,-1.636,-1.6315,-1.6312,-1.6305,-1.6302,-1.6299,-1.6333,-1.6331,-1.6267,-1.6267,-1.6268,-1.6268,0,0,0,0,0,0,0,-1.648,-1.6507,-1.6491,-1.6427,-1.6421,-1.6435,-1.6434,-1.6433,-1.6323,-1.632,-1.6316,-1.6313,-1.6262,-1.6263,-1.6264,-1.6336,0,0,-1.6266,-1.6267,0,0,0,0,0,0,0,0,-1.6506,-1.6507,-1.6491,-1.649,-1.6489,-1.6434,-1.6434,-1.6433,-1.6322,-1.632,-1.6317,-1.6314,-1.6262,-1.6263,-1.6263,0,0,0,0,0,0,0,0,0,0,0,0,0,0,0,-1.6491,-1.649,0,-1.6434,-1.6434,-1.6433,-1.6322,-1.632,-1.6318,-1.6315,-1.6262,-1.6263,-1.6263,0,0,0,0,0,0,0,0,0,0,0,0,0,0,0,0,0,0,0,0,0,0,0,0,0,0,0,0,0,0,0,0,0,0,0,0,0,0,0,0,0,0,0,0,0,0,0,0,0,0,0,0,0,0,0,0,0,0,0,0,0,0,0,0,0,0,0,0,0]}],[{"header":{"parameterUnit":"kt","parameterCategory":2,"dx":1,"dy":1,"la1":30.253999710083008,"la2":30.299108505249023,"lo1":-89.0895004272461,"lo2":-89.04439544677734,"nx":28,"ny":28,"refTime":"2022-09-18T21:00:00:Z","depth":0,"parameterNumber":2,"parameterNumberName":"V-component_of_WINDS"},"data":[-4.2001,-4.2161,-4.2229,-4.2444,-4.2542,-4.2701,-4.2779,-4.2888,-4.2993,-4.319,-4.3316,-4.3402,-4.3533,-4.3701,-4.3841,-4.3877,-4.3931,-4.3939,-4.3979,-4.3884,-4.3876,-4.3867,-4.3834,-4.3949,-4.3949,-4.4067,-4.4068,-4.4069,-4.1927,-4.2025,-4.2158,-4.2333,-4.2449,-4.2483,-4.2626,-4.272,-4.2861,-4.299,-4.3118,-4.3298,-4.3449,-4.3581,-4.3738,-4.3816,-4.3841,-4.3853,-4.3849,-4.3869,-4.377,-4.3734,-4.383,-4.383,-4.383,-4.383,-4.383,-4.383,-4.181,-4.1903,-4.2049,-4.2195,-4.2302,-4.2419,-4.252,-4.2623,-4.2755,-4.2926,-4.2983,-4.3144,-4.3287,-4.351,-4.3602,-4.373,-4.3729,-4.3764,-4.3773,-4.378,-4.3779,-4.3601,-4.376,-4.376,-4.376,-4.376,-4.376,0,-4.1745,-4.1796,-4.1929,-4.2082,-4.2192,-4.2317,-4.2444,-4.2508,-4.264,-4.2743,-4.2898,-4.3,-4.32,-4.3354,-4.3517,-4.3606,-4.3653,-4.3665,-4.369,-4.3665,-4.3622,-4.3647,-4.3483,-4.366,-4.3659,-4.3659,-4.3659,-4.3658,-4.1633,-4.1733,-4.1919,-4.2003,-4.2089,-4.2223,-4.2317,-4.2425,-4.252,-4.2692,-4.2769,-4.2925,-4.3056,-4.3294,-4.3413,-4.3563,-4.3588,-4.3648,-4.361,-4.3582,-4.359,-4.3583,-4.3594,-4.3652,-4.3653,-4.3654,-4.3654,0,-4.1563,-4.1674,-4.1852,-4.2027,-4.2074,-4.2174,-4.2323,-4.2421,-4.2511,-4.2658,-4.2699,-4.2839,-4.299,-4.3101,-4.3296,-4.3349,-4.3517,-4.3536,-4.3469,-4.3479,-4.3544,-4.3536,-4.3736,-4.3768,-4.3649,-4.365,-4.3651,0,-4.1511,-4.1638,-4.1798,-4.1895,-4.2041,-4.2147,-4.2288,-4.2379,-4.2504,-4.2621,-4.2691,-4.28,-4.2925,-4.3049,-4.3128,-4.3285,-4.3322,-4.3372,-4.3391,-4.3366,-4.336,-4.3418,-4.3412,-4.3431,-4.343,-4.3429,-4.3428,0,-4.139,-4.1625,-4.1783,-4.1855,-4.2054,-4.2126,-4.2212,-4.2352,-4.2443,-4.2579,-4.264,-4.279,-4.2873,-4.2988,-4.3088,-4.3059,-4.3282,-4.3263,-4.3334,-4.3331,-4.3377,-4.3373,-4.3523,-4.3426,-4.3426,-4.3426,-4.3425,0,-4.1365,-4.15,-4.1713,-4.188,-4.1938,-4.2042,-4.2197,-4.2312,-4.2455,-4.2512,-4.262,-4.268,-4.2825,-4.2798,-4.3001,-4.2935,-4.3012,-4.3074,-4.3081,-4.3101,-4.3067,-4.3136,-4.3267,-4.3285,-4.3119,-4.3116,-4.3114,0,-4.1196,-4.1441,-4.1533,-4.1734,-4.1862,-4.1933,-4.2051,-4.2175,-4.2261,-4.2382,-4.2477,-4.2614,-4.2617,-4.2676,-4.2762,-4.2864,-4.2951,-4.2856,-4.3031,-4.3036,-4.2991,-4.3113,-4.3104,-4.3226,-4.3083,-4.3086,-4.3089,0,-4.1079,-4.132,-4.1349,-4.1435,-4.1616,-4.1724,-4.1859,-4.2019,-4.2095,-4.2226,-4.2343,-4.2539,-4.255,-4.2645,-4.271,-4.2793,-4.2896,-4.2794,-4.2799,-4.2808,-4.3076,-4.3068,-4.3088,-4.2921,-4.2925,-4.2928,-4.3064,0,-4.1017,-4.1154,-4.1237,-4.1424,-4.1524,-4.1655,-4.1773,-4.1863,-4.1915,-4.2002,-4.2175,-4.2306,-4.2469,-4.252,-4.2572,-4.2727,-4.2718,-4.2728,-4.2709,-4.2788,-4.2836,-4.2855,-4.2628,-4.2629,-4.2629,-4.2629,0,0,-4.0828,-4.1026,-4.1123,-4.1258,-4.1349,-4.142,-4.155,-4.1647,-4.184,-4.1902,-4.1892,-4.2187,-4.2293,-4.2491,-4.2525,-4.259,-4.2629,-4.2596,-4.2749,-4.2762,-4.2775,-4.2823,-4.2842,-4.2629,-4.2629,-4.2629,-4.2629,0,-4.083,-4.0937,-4.1063,-4.1168,-4.1326,-4.1412,-4.1442,-4.1611,-4.1673,-4.1843,-4.1899,-4.2017,-4.2249,-4.2355,-4.2439,-4.2576,-4.2612,-4.2616,-4.2651,-4.2746,-4.2759,-4.2771,-4.2821,-4.2837,-4.2629,-4.2629,-4.2629,0,-4.0736,-4.0861,-4.0934,-4.1143,-4.1248,-4.1377,-4.1387,-4.1523,-4.1621,-4.1692,-4.1859,-4.1947,-4.2098,-4.227,-4.2351,-4.2345,-4.2589,-4.2532,-4.2535,-4.2546,-4.2644,-4.2659,-4.2673,-4.2495,-4.2494,-4.2493,0,0,-4.0721,-4.0849,-4.1016,-4.1152,-4.1214,-4.1343,-4.1424,-4.1484,-4.1618,-4.1671,-4.1785,-4.1913,-4.205,-4.2137,-4.2271,-4.2442,-4.2482,-4.2511,-4.2517,-4.2522,-4.2536,-4.2635,-4.265,-4.249,-4.249,-4.2489,0,0,-4.0715,-4.0914,-4.0942,-4.1116,-4.1241,-4.1415,-4.1494,-4.1534,-4.1666,-4.1664,-4.1772,-4.1811,-4.1973,-4.2057,-4.1996,-4.2266,-4.2246,-4.2263,-4.2205,-4.2215,-4.2221,-4.2198,-4.2023,0,0,0,0,0,-4.0776,-4.0889,-4.0913,-4.0959,-4.1224,-4.1401,-4.1436,-4.1528,-4.1511,-4.1572,-4.1674,-4.1707,-4.2047,-4.1995,-4.2039,-4.2107,-4.2443,-4.2452,-4.2459,-4.2426,-4.2435,-4.2442,0,0,0,0,0,0,-4.0795,-4.0852,-4.091,-4.1087,-4.1147,-4.1398,-4.1391,-4.1419,-4.1507,-4.1511,-4.1686,-4.1712,-4.1794,-4.1978,-4.2017,-4.2079,-4.2011,-4.2447,-4.2453,-4.246,-4.2429,-4.2436,-4.2443,0,0,0,0,0,-4.0811,-4.0856,-4.1256,-4.1086,-4.1138,-4.1288,-4.1387,-4.1411,-4.148,-4.1638,-4.1665,-4.1542,-4.1793,-4.1832,-4.2002,-4.2059,-4.1984,-4.1998,-4.2451,-4.2457,-4.2461,-4.2433,0,0,0,0,0,0,-4.0822,-4.0879,-4.1269,-4.1288,-4.105,-4.1276,-4.1314,-4.1403,-4.1604,-4.1632,-4.1498,-4.1499,-4.1794,-4.1824,-4.1854,-4.2047,-4.1963,-4.1977,-4.1986,-4.2455,-4.246,-4.2463,0,0,0,0,0,0,-4.0856,-4.0895,-4.1279,-4.1228,-4.1243,-4.1264,-4.1298,-4.1455,-4.1605,-4.1453,-4.146,-4.1496,-4.1749,-4.1819,-4.1842,-4.2084,-4.1947,-4.196,-4.197,-4.1976,-4.2459,-4.2462,0,0,0,0,0,0,-4.0874,-4.0908,-4.1224,-4.1235,-4.1247,-4.1472,-4.1404,-4.167,-4.1561,-4.1443,-4.1554,-4.1551,-4.1744,-4.1769,-4.1834,-4.2065,-4.2079,-4.1947,-4.1956,-4.1963,-4.1967,0,0,0,0,0,0,0,-4.0889,-4.0638,-4.1153,-4.124,-4.1251,-4.1468,-4.1473,-4.1478,-4.1561,-4.1558,-4.1555,-4.1552,-4.1868,-4.1883,-4.1898,-4.205,0,0,-4.1946,-4.1952,0,0,0,0,0,0,0,0,-4.0626,-4.0635,-4.1154,-4.1158,-4.1162,-4.1469,-4.1473,-4.1477,-4.156,-4.1558,-4.1556,-4.1553,-4.1872,-4.1884,-4.1897,0,0,0,0,0,0,0,0,0,0,0,0,0,0,0,-4.1154,-4.1158,0,-4.1469,-4.1473,-4.1476,-4.156,-4.1558,-4.1556,-4.1554,-4.1876,-4.1886,-4.1896,0,0,0,0,0,0,0,0,0,0,0,0,0,0,0,0,0,0,0,0,0,0,0,0,0,0,0,0,0,0,0,0,0,0,0,0,0,0,0,0,0,0,0,0,0,0,0,0,0,0,0,0,0,0,0,0,0,0,0,0,0,0,0,0,0,0,0,0,0]}]]]